ハーゲンローザー-スパール彗星

C/1996 R1 ( Hergenrother-Spahr )

English version
Home page
Updated on February 25, 1997

---------------------------------------------------------------------

・ プロフィール

発見日 1996年9月7日
発見光度 14等
発見者 Carl W. Hergenrother, Timothy B. Spahr (Mount Bigelow)

・ 軌道要素

   The following improved orbital elements, by Kenji Muraoka, are 
  from 309 observations  1996 Sept. 8  to  Dec.  3, perturbations
  by 9 Planets, Moon and 5 minor planets were taken into account.
   The mean residual is +/- 0.60 arc seconds.

      Epoch  =  1996 Aug. 25.0  TT       JDT = 2450320.5
          T  =  1996 Aug. 28.73918       +/- 0.00107 (m.e.) TT
       Peri. =  139.45613                +/- 0.00051
       Node  =  149.74470                +/- 0.00054   (2000.0)
       Incl. =  145.81455                +/- 0.00022
          q  =    1.8992135              +/- 0.0000100 AU
          e  =    0.9857025              +/- 0.0000840
        1/a  =   +0.0075281              +/- 0.0000442 1/AU
        ( P  =   1531 years )
  orig. 1/a  =   +0.0080976 
  fut.  1/a  =   +0.0076585 

・ 星図

・ 1995年12月 9日〜1996年 9月14日
・ 1996年 8月15日〜1996年11月 3日
・ 1996年10月24日〜1997年 8月20日

・ 光度変化

        m1 = 6.2 + 5 logΔ + 20.0 log r

---------------------------------------------------------------------

軌道要素は村岡健治氏の計算によるものです。
星図は StellaNavigator Ver.2.0 for Windows (アストロアーツ 編著 / アスキー出版局刊) で作成したものです。
光度グラフはComet for Windowsで作成したものです。

---------------------------------------------------------------------

Copyright(C) Seiichi Yoshida (comet@aerith.net). All rights reserved.